Back to catalog

STARLINK-30333

AliveCommunicationsVLEO
NORAD 57702·PAYLOAD·🇺🇸 United States

Launched Aug 27, 2023 from Cape Canaveral Space Force Station

Loading…

Next Passes (next 24 hours)

TLE

FreshSource: CelesTrak SupGP

Epoch: Sep 14, 2026, 21:05 UTC

1 57702C 23129E   26257.87895833 -.00064660  00000+0 -23423-2 0  2577
2 57702  43.0022 129.1327 0001322 271.4295 339.2966 15.27605948    13

Track STARLINK-30333 in real time with AllMySat

Download on the App Store